Flag for France Weather past 2 weeks in Aix-en-Provence, France

57 °F


Feels Like: 57 °F
Forecast: 56 / 75 °F
Wind: 2 mph from Southeast

Location: Marseille / Marignane

Current Time: Oct 4, 2015 at 8:00:11 AM

Latest Report: Oct 4, 2015 at 7:30 AM

Visibility: 4 mi

Pressure: 30.09 "Hg

Humidity: 100%

Dew point: 57 °F

Location of Aix-en-ProvenceLocation

Historic Weather in Aix-en-Provence — Graph


Aix-en-Provence temperature yesterday

Maximum temperature yesterday: 70 °F (at 6:00 PM)
Minimum temperature yesterday: 59 °F (at 12:00 AM)
Average temperature yesterday: 63 °F

Past Weeks' High & Low Weather Summary

High77 °F (Sep 21, 4:30 PM)100% (Sep 22, 8:30 AM)30.21 "Hg (Sep 22, 8:30 AM)
Low50 °F (Sep 25, 3:30 AM)29% (Sep 30, 4:00 PM)29.80 "Hg (Sep 22, 6:30 PM)
Average64 °F64%30.03 "Hg
* Reported Sep 19 7:00 AM — Oct 4 7:00 AM, Aix-en-Provence, Weather by CustomWeather, © 2015

Note: Actual official high and low records may vary slightly from our data, if they occured in-between our weather recording intervals... More about our weather records


Aix-en-Provence weather history for previous 24 hours

Time TempWeatherWind HumidityBarometerVisibility
7:00 AM
Sun, Oct 4
57 °FFog.No wind100%30.09 "Hg2 mi
6:30 AM55 °FFog.2 mph100%30.09 "Hg1 mi
6:00 AM55 °FFog.3 mph100%30.09 "Hg1 mi
5:30 AM55 °FFog.2 mph100%30.09 "Hg3 mi
5:00 AM52 °FPassing clouds.2 mph100%30.07 "Hg3 mi
4:30 AM55 °FPassing clouds.5 mph100%30.07 "HgN/A
4:00 AM54 °FClear.3 mph100%30.09 "HgN/A
3:30 AM54 °FClear.5 mph100%30.09 "Hg6 mi
3:00 AM54 °FClear.6 mph100%30.09 "HgN/A
2:30 AM55 °FClear.5 mph100%30.09 "HgN/A
2:00 AM55 °FClear.2 mph100%30.07 "Hg4 mi
1:30 AM57 °FClear.3 mph94%30.09 "HgN/A
1:00 AM57 °FPassing clouds.3 mph100%30.07 "HgN/A
12:30 AM57 °FPassing clouds.3 mph100%30.07 "HgN/A
11:30 PM
Sat, Oct 3
59 °FPartly cloudy.6 mph94%30.07 "HgN/A
11:00 PM61 °FPartly cloudy.7 mph94%30.04 "HgN/A
10:30 PM61 °FPartly cloudy.8 mph94%30.04 "HgN/A
10:00 PM63 °FPartly cloudy.10 mph100%30.04 "HgN/A
9:30 PM63 °FPassing clouds.6 mph100%30.01 "HgN/A
9:00 PM64 °FPassing clouds.6 mph94%30.01 "HgN/A
8:30 PM64 °FPassing clouds.5 mph94%29.98 "HgN/A
8:00 PM64 °FBroken clouds.9 mph94%29.98 "HgN/A
7:30 PM64 °FThunderstorms. Broken clouds.5 mph100%29.95 "Hg4 mi
7:00 PM66 °FStrong thunderstorms. Partly sunny.21 mph88%29.92 "Hg1 mi
6:30 PM70 °FThunderstorms. Partly sunny.22 mph88%29.92 "Hg4 mi
6:00 PM70 °FThunderstorms. Broken clouds.24 mph94%29.92 "Hg5 mi
5:30 PM68 °FThunderstorms. Broken clouds.31 mph94%29.92 "Hg5 mi
5:00 PM68 °FThunderstorms. Broken clouds.26 mph88%29.92 "Hg3 mi
4:30 PM68 °FThunderstorms. Broken clouds.29 mph88%29.92 "Hg6 mi
4:00 PM68 °FThunderstorms. Broken clouds.31 mph88%29.92 "Hg6 mi
3:30 PM68 °FThunderstorms. Broken clouds.31 mph83%29.92 "Hg6 mi
3:00 PM68 °FThunderstorms. Broken clouds.32 mph83%29.92 "HgN/A
2:30 PM66 °FThunderstorms. Broken clouds.32 mph88%29.92 "HgN/A
2:00 PM66 °FThunderstorms. Partly sunny.28 mph83%29.92 "Hg5 mi
1:30 PM64 °FThunderstorms. Broken clouds.15 mph83%30.01 "Hg4 mi
1:00 PM64 °FThunderstorms. Broken clouds.18 mph88%30.01 "Hg3 mi
12:30 PM64 °FThunderstorms. Broken clouds.20 mph88%30.01 "Hg3 mi
12:00 PM64 °FThunderstorms. Broken clouds.17 mph83%30.04 "Hg6 mi
11:30 AM64 °FThunderstorms. Broken clouds.16 mph78%30.04 "HgN/A
11:00 AM63 °FLight rain. Partly sunny.13 mph88%30.04 "HgN/A
10:30 AM63 °FLight rain. Broken clouds.13 mph88%30.04 "Hg5 mi
10:00 AM63 °FLight rain. Broken clouds.12 mph88%30.04 "Hg5 mi
9:30 AM63 °FLight rain. Broken clouds.12 mph83%30.07 "Hg5 mi
9:00 AM63 °FLight rain. Broken clouds.10 mph77%30.07 "HgN/A
8:00 AM61 °FPassing clouds.8 mph83%30.04 "HgN/A
Weather by CustomWeather, © 2015

See weather overviewHow to use our weather pages